[[{"header":{"parameterUnit":"m.s-1","parameterCategory":1,"la1":30.2991,"la2":30.254,"lo1":-89.0895,"lo2":-89.0444,"dy":0.0017,"dx":0.0017,"nx":28,"ny":28,"refTime":"2026-02-02T03:00:00:Z","depth":0,"parameterNumber":2,"parameterNumberName":"U-component_of_WINDS"},"data":[0,0,0,0,0,0,0,0,0,0,0,0,0,0,0,0,0,0,0,0,0,0,0,0,0,0,0,0,0,0,0,0,0,0,0,0,0,0,0,0,0,0,0,0,0,0,0,0,0,0,0,0,0,0,0,0,0,0,2.4767,2.4767,0,2.4756,2.4756,2.4756,2.4709,2.4708,2.4707,2.4706,2.4694,2.4695,2.4696,0,0,0,0,0,0,0,0,0,0,0,0,0,2.4747,2.4747,2.4767,2.4767,2.4767,2.4756,2.4756,2.4756,2.4709,2.4708,2.4706,2.4705,2.4694,2.4695,2.4696,0,0,0,0,0,0,0,0,0,0,0,0,0,2.4748,2.4748,2.4767,2.4742,2.474,2.4756,2.4756,2.4756,2.4709,2.4708,2.4706,2.4704,2.4694,2.4695,2.4696,2.4736,0,0,2.4699,2.47,0,0,0,0,0,0,0,0,2.4748,2.4749,2.4746,2.4744,2.4741,2.4732,2.4745,2.4749,2.471,2.4721,2.4706,2.4704,2.4708,2.4708,2.471,2.4735,2.4735,2.4699,2.47,2.47,2.4701,0,0,0,0,0,0,0,2.4748,2.4749,2.4763,2.4746,2.4743,2.4731,2.473,2.4746,2.4724,2.472,2.4716,2.4716,2.4707,2.4709,2.4709,2.4734,2.4699,2.47,2.4701,2.4701,2.4794,2.4796,0,0,0,0,0,0,2.4751,2.4749,2.4763,2.4762,2.474,2.4733,2.4731,2.4737,2.4724,2.472,2.4717,2.4714,2.4708,2.4708,2.4708,2.4755,2.47,2.4701,2.4702,2.4792,2.4795,2.4797,0,0,0,0,0,0,2.4751,2.4753,2.4763,2.4755,2.4755,2.4735,2.4742,2.4737,2.4739,2.4722,2.4718,2.4723,2.4706,2.4707,2.473,2.4754,2.4702,2.4703,2.479,2.4793,2.4796,2.4849,0,0,0,0,0,0,2.4751,2.4753,2.4768,2.4755,2.4756,2.4785,2.4743,2.4738,2.4742,2.4737,2.4726,2.4723,2.4705,2.4728,2.4731,2.4755,2.4704,2.4788,2.4792,2.4795,2.4845,2.4853,2.486,0,0,0,0,0,2.475,2.4783,2.4769,2.4771,2.4774,2.4786,2.4787,2.4765,2.4744,2.4759,2.4747,2.4723,2.4751,2.4731,2.4733,2.4758,2.4786,2.4791,2.4794,2.4842,2.4852,2.486,0,0,0,0,0,0,2.4797,2.478,2.4765,2.4794,2.4792,2.4778,2.4796,2.4777,2.478,2.4776,2.4749,2.4747,2.4774,2.4768,2.4746,2.4797,2.4765,2.477,2.48,2.4809,2.4817,2.4818,2.4705,0,0,0,0,0,2.4812,2.4823,2.4808,2.4835,2.4835,2.4816,2.4821,2.4805,2.4802,2.48,2.4791,2.4788,2.4797,2.4803,2.4809,2.4844,2.4842,2.4862,2.487,2.4877,2.4881,2.4901,2.491,2.481,2.481,2.481,0,0,2.484,2.4833,2.4841,2.4845,2.4841,2.4854,2.4816,2.483,2.484,2.4802,2.4824,2.4817,2.4813,2.4842,2.4855,2.4838,2.4908,2.4882,2.4887,2.4888,2.4906,2.4915,2.4924,2.4813,2.4812,2.4812,0,0,2.49,2.4895,2.4918,2.4916,2.4911,2.4899,2.4905,2.4894,2.4888,2.4909,2.4882,2.4893,2.4908,2.4906,2.4907,2.4969,2.4947,2.4972,2.5012,2.5031,2.5039,2.5046,2.5069,2.5077,2.4976,2.4976,2.4976,0,2.4936,2.4955,2.4932,2.495,2.4953,2.492,2.4944,2.4943,2.4941,2.4943,2.4925,2.4944,2.4939,2.4968,2.4984,2.4985,2.4992,2.4973,2.504,2.5047,2.5053,2.5074,2.5083,2.4979,2.4979,2.4979,2.4978,0,2.5,2.5014,2.5033,2.5033,2.5038,2.5058,2.504,2.5048,2.5032,2.5022,2.5045,2.5037,2.5043,2.5049,2.5033,2.5077,2.5067,2.5045,2.5012,2.5066,2.5086,2.5094,2.4984,2.4983,2.4982,2.4981,0,0,2.5088,2.5077,2.5084,2.5085,2.5078,2.5088,2.5108,2.5114,2.5122,2.5122,2.5138,2.5153,2.5133,2.5134,2.5118,2.5135,2.5186,2.5111,2.5111,2.5126,2.5235,2.5253,2.5262,2.5172,2.5173,2.5175,2.5236,0,2.5146,2.5179,2.516,2.5196,2.5209,2.5179,2.5197,2.5195,2.5186,2.5196,2.5186,2.5198,2.517,2.5171,2.5186,2.5177,2.5208,2.5172,2.5187,2.5188,2.519,2.5273,2.529,2.5349,2.5244,2.5245,2.5246,0,2.5217,2.5221,2.5259,2.5252,2.5257,2.5272,2.5277,2.5287,2.5285,2.5278,2.5281,2.5261,2.5281,2.5249,2.5276,2.5252,2.5257,2.5254,2.5255,2.5256,2.5221,2.5276,2.5367,2.5376,2.5258,2.5257,2.5256,0,2.5279,2.5294,2.5319,2.532,2.5312,2.5324,2.5321,2.5318,2.5323,2.5327,2.5331,2.5337,2.5341,2.5347,2.533,2.5308,2.536,2.5326,2.5355,2.5355,2.5367,2.5367,2.546,2.537,2.537,2.537,2.5369,0,2.5345,2.5369,2.5347,2.5362,2.5389,2.5368,2.5395,2.5389,2.5387,2.5401,2.5375,2.5389,2.5366,2.5377,2.5364,2.539,2.5391,2.5386,2.5382,2.5389,2.539,2.5392,2.5388,2.5372,2.5371,2.5371,2.5371,0,2.5418,2.5404,2.5429,2.542,2.5419,2.5439,2.5432,2.5446,2.5436,2.5455,2.5458,2.5442,2.5455,2.5439,2.545,2.5441,2.5476,2.5466,2.5477,2.5474,2.5505,2.5502,2.5603,2.5616,2.5517,2.5518,2.5519,0,2.5462,2.548,2.5474,2.5482,2.5481,2.5494,2.55,2.548,2.5487,2.5488,2.5502,2.5513,2.552,2.5542,2.5532,2.5541,2.5531,2.5566,2.5532,2.5539,2.5533,2.5532,2.5534,2.5573,2.5574,2.5575,2.5576,0,2.5541,2.5534,2.5543,2.5551,2.5559,2.5564,2.5567,2.5575,2.5554,2.5564,2.5577,2.5583,2.5595,2.5607,2.5613,2.561,2.559,2.5587,2.5594,2.5601,2.5607,2.5605,2.5496,2.5584,2.5584,2.5583,2.5582,2.5582,2.5601,2.5617,2.5616,2.5628,2.5628,2.5632,2.5646,2.5638,2.5649,2.5658,2.5645,2.5662,2.5661,2.5668,2.5668,2.5681,2.5666,2.5676,2.5679,2.5682,2.5687,2.5605,2.5682,2.5681,2.5681,2.5681,2.5681,0,2.568,2.5679,2.569,2.5696,2.5705,2.5686,2.5689,2.5699,2.5714,2.5715,2.5724,2.574,2.5751,2.5743,2.5752,2.5765,2.5756,2.5768,2.5767,2.5767,2.5699,2.5693,2.5775,2.5775,2.5775,2.5775,2.5775,2.5775,2.5723,2.5749,2.5741,2.5768,2.5765,2.5782,2.5786,2.579,2.5791,2.581,2.5819,2.5814,2.5812,2.5821,2.5831,2.5829,2.5834,2.5849,2.5844,2.5781,2.5771,2.5763,2.5756,2.585,2.5851,2.591,2.5911,2.5911]},{"header":{"parameterUnit":"m.s-1","parameterCategory":1,"la1":30.2991,"la2":30.254,"lo1":-89.0895,"lo2":-89.0444,"dy":0.0017,"dx":0.0017,"nx":28,"ny":28,"refTime":"2026-02-02T03:00:00:Z","depth":0,"parameterNumber":3,"parameterNumberName":"V-component_of_WINDS"},"data":[0,0,0,0,0,0,0,0,0,0,0,0,0,0,0,0,0,0,0,0,0,0,0,0,0,0,0,0,0,0,0,0,0,0,0,0,0,0,0,0,0,0,0,0,0,0,0,0,0,0,0,0,0,0,0,0,0,0,-3.6805,-3.6807,0,-3.6936,-3.6938,-3.6939,-3.6977,-3.6976,-3.6975,-3.6975,-3.7106,-3.711,-3.7114,0,0,0,0,0,0,0,0,0,0,0,0,0,-3.6587,-3.6591,-3.6805,-3.6807,-3.6808,-3.6936,-3.6938,-3.6939,-3.6977,-3.6976,-3.6975,-3.6974,-3.7105,-3.7109,-3.7114,0,0,0,0,0,0,0,0,0,0,0,0,0,-3.6696,-3.6592,-3.6805,-3.6843,-3.6847,-3.6935,-3.6938,-3.694,-3.6977,-3.6976,-3.6975,-3.6974,-3.7103,-3.7109,-3.7115,-3.7174,0,0,-3.7134,-3.7137,0,0,0,0,0,0,0,0,-3.669,-3.6704,-3.6835,-3.684,-3.6846,-3.6939,-3.6909,-3.7018,-3.6977,-3.6928,-3.6975,-3.6974,-3.7051,-3.7061,-3.7088,-3.718,-3.7186,-3.7135,-3.7138,-3.7141,-3.7143,0,0,0,0,0,0,0,-3.6682,-3.6698,-3.6857,-3.6837,-3.6844,-3.6853,-3.6867,-3.693,-3.6994,-3.6932,-3.6935,-3.695,-3.7054,-3.7082,-3.7092,-3.7188,-3.7134,-3.714,-3.7144,-3.7146,-3.7338,-3.7339,0,0,0,0,0,0,-3.6668,-3.6692,-3.6853,-3.6861,-3.6764,-3.6857,-3.6873,-3.691,-3.6993,-3.7005,-3.6951,-3.6951,-3.7072,-3.7084,-3.7096,-3.7173,-3.7141,-3.7147,-3.715,-3.7336,-3.7338,-3.734,0,0,0,0,0,0,-3.6663,-3.6682,-3.6847,-3.6777,-3.6799,-3.6862,-3.6903,-3.6913,-3.6942,-3.7007,-3.7019,-3.6968,-3.7072,-3.7088,-3.7155,-3.7178,-3.715,-3.7155,-3.7335,-3.7337,-3.7339,-3.7325,0,0,0,0,0,0,-3.6657,-3.668,-3.6704,-3.6778,-3.6803,-3.6905,-3.6904,-3.6917,-3.6953,-3.6955,-3.7027,-3.7038,-3.7072,-3.7146,-3.7162,-3.7186,-3.716,-3.7333,-3.7336,-3.7338,-3.7324,-3.7326,-3.7329,0,0,0,0,0,-3.6649,-3.6693,-3.6705,-3.6724,-3.6833,-3.6906,-3.692,-3.696,-3.6954,-3.6978,-3.7021,-3.7035,-3.7173,-3.7153,-3.717,-3.7197,-3.7332,-3.7335,-3.7338,-3.7323,-3.7326,-3.7329,0,0,0,0,0,0,-3.6619,-3.6704,-3.6717,-3.6787,-3.6839,-3.6912,-3.6943,-3.6961,-3.7015,-3.7015,-3.7061,-3.7077,-3.7141,-3.7176,-3.7152,-3.726,-3.7253,-3.7259,-3.7235,-3.7239,-3.7241,-3.7231,-3.7165,0,0,0,0,0,-3.662,-3.6673,-3.6744,-3.6798,-3.6824,-3.6879,-3.6912,-3.6939,-3.6994,-3.7016,-3.7063,-3.7116,-3.7172,-3.7207,-3.7261,-3.7329,-3.7346,-3.7356,-3.7358,-3.736,-3.7366,-3.7406,-3.7412,-3.735,-3.735,-3.735,0,0,-3.6624,-3.6677,-3.6707,-3.6794,-3.6837,-3.6891,-3.6897,-3.6953,-3.6993,-3.7024,-3.7092,-3.7128,-3.719,-3.7259,-3.7292,-3.729,-3.7387,-3.7364,-3.7365,-3.737,-3.741,-3.7416,-3.7421,-3.7352,-3.7351,-3.7351,0,0,-3.6658,-3.6702,-3.6754,-3.6798,-3.6865,-3.6902,-3.6914,-3.6985,-3.7011,-3.708,-3.7105,-3.7153,-3.7247,-3.7291,-3.7325,-3.7378,-3.7394,-3.7394,-3.7407,-3.7446,-3.7451,-3.7455,-3.7476,-3.7482,-3.74,-3.74,-3.74,0,-3.6653,-3.6735,-3.6778,-3.6833,-3.6871,-3.6903,-3.6956,-3.6997,-3.7077,-3.7102,-3.7099,-3.722,-3.7263,-3.7344,-3.7357,-3.7383,-3.74,-3.7387,-3.7447,-3.7452,-3.7457,-3.7477,-3.7484,-3.7399,-3.7399,-3.7399,-3.7399,0,-3.6727,-3.6784,-3.6817,-3.6896,-3.6938,-3.6991,-3.7042,-3.7079,-3.7102,-3.7139,-3.721,-3.7264,-3.7331,-3.7352,-3.7374,-3.7436,-3.7433,-3.7438,-3.7432,-3.7462,-3.7481,-3.7489,-3.7399,-3.7399,-3.7399,-3.7399,0,0,-3.6745,-3.6848,-3.686,-3.6897,-3.6974,-3.7018,-3.7074,-3.7141,-3.7172,-3.7227,-3.7275,-3.7355,-3.7361,-3.74,-3.7427,-3.7461,-3.7502,-3.7462,-3.7465,-3.7469,-3.7575,-3.7572,-3.758,-3.7513,-3.7514,-3.7516,-3.7571,0,-3.6789,-3.6891,-3.6932,-3.7014,-3.7068,-3.71,-3.7148,-3.7201,-3.7237,-3.7288,-3.7328,-3.7384,-3.7387,-3.7411,-3.7446,-3.7489,-3.7524,-3.7486,-3.7559,-3.7561,-3.7543,-3.759,-3.7586,-3.7636,-3.7578,-3.758,-3.7581,0,-3.6854,-3.6912,-3.7,-3.7072,-3.7096,-3.7139,-3.7205,-3.7253,-3.7313,-3.7338,-3.7383,-3.7409,-3.7469,-3.7459,-3.7542,-3.7515,-3.7548,-3.7574,-3.7576,-3.7585,-3.7573,-3.7601,-3.7652,-3.766,-3.7593,-3.7592,-3.7591,0,-3.686,-3.6959,-3.7025,-3.7056,-3.7141,-3.7171,-3.7208,-3.7268,-3.7306,-3.7363,-3.7389,-3.7451,-3.7486,-3.7534,-3.7577,-3.7565,-3.7657,-3.765,-3.7679,-3.7678,-3.7697,-3.7695,-3.7755,-3.7716,-3.7716,-3.7716,-3.7716,0,-3.6906,-3.6959,-3.7029,-3.707,-3.7131,-3.7177,-3.7236,-3.7275,-3.7328,-3.7377,-3.7408,-3.7453,-3.7507,-3.7559,-3.7592,-3.7657,-3.7672,-3.7694,-3.7702,-3.7692,-3.7689,-3.7714,-3.7712,-3.7718,-3.7717,-3.7717,-3.7717,0,-3.6922,-3.6972,-3.7046,-3.7122,-3.7143,-3.7184,-3.7249,-3.729,-3.7328,-3.739,-3.7407,-3.7468,-3.7531,-3.7578,-3.7659,-3.7682,-3.7752,-3.776,-3.7732,-3.7736,-3.7764,-3.7761,-3.7841,-3.7855,-3.7806,-3.7806,-3.7807,0,-3.6949,-3.6991,-3.7072,-3.7108,-3.7145,-3.7202,-3.7242,-3.7289,-3.733,-3.7403,-3.7435,-3.7501,-3.7556,-3.7656,-3.7707,-3.777,-3.778,-3.7804,-3.779,-3.7779,-3.7782,-3.778,-3.7785,-3.7806,-3.7807,-3.7807,-3.7807,0,-3.6991,-3.7014,-3.7071,-3.7137,-3.7184,-3.7238,-3.7292,-3.732,-3.7377,-3.7421,-3.7487,-3.753,-3.7615,-3.768,-3.7748,-3.7786,-3.7807,-3.7811,-3.7822,-3.7812,-3.7794,-3.7806,-3.7738,-3.7809,-3.7809,-3.7809,-3.7809,-3.7809,-3.7014,-3.7054,-3.7118,-3.7181,-3.7227,-3.7278,-3.7321,-3.7366,-3.7422,-3.7495,-3.752,-3.7588,-3.765,-3.7744,-3.7783,-3.7837,-3.7837,-3.7851,-3.7855,-3.7858,-3.7858,-3.7785,-3.7849,-3.7849,-3.7849,-3.7849,-3.7849,0,-3.7059,-3.7103,-3.716,-3.7237,-3.7286,-3.7302,-3.7364,-3.7405,-3.7465,-3.7521,-3.7575,-3.7652,-3.7716,-3.7772,-3.7839,-3.7872,-3.7883,-3.7888,-3.7886,-3.7895,-3.7854,-3.7839,-3.7878,-3.7878,-3.7878,-3.7878,-3.7878,-3.7878,-3.7089,-3.7157,-3.7188,-3.728,-3.7323,-3.7392,-3.7426,-3.7473,-3.7518,-3.7603,-3.7657,-3.7694,-3.775,-3.7822,-3.7881,-3.7896,-3.792,-3.7923,-3.794,-3.7901,-3.7897,-3.7894,-3.788,-3.7927,-3.7927,-3.7977,-3.7977,-3.7978]}]]